SCP
0 0 0 -0 -0 -0 -0 -0 -0 -0 0 0 0 -0 -0 -0 0 -0 -0 -0 -0 -0 -0 -0 -0 0 0 0 0 0 -0 -0 -0 -0 -0 -0 -0 -0 -0 -0 -0 -0 -0
0 -0 -0 -0 -0 -0 -0 -0 -0 -0 -0 -0 -0 0 -0 -0 -0 -0 -0 -0 -0 -0 -0 -0 -0 -0 0 0 0 0 0 0 0 0 0 -0 -0 -0 -0 -0 -0 -0 -0
0 0 -0 -0 -0 -0 -0 -0 -0 -0 -0 -0 -0 -0 -0 -0 -0 -0 -0 -0 -0 -0 -0 -0 -0 -0 -0 -0 0 0 0 0 0 0 0 0 0 -0 -0 -0 -0 -0 -0
0 0 -0 -0 -0 -0 -0 -0 -0 -0 -0 -0 -0 -0 -0 -0 -0 -0 -0 -0 -0 -0 -0 -0 -0 -0 -0 0 0 0 0 -0 -0 0 0 0 0 0 0 0 -0 -0 -0
-0 -0 -0 -0 -0 -0 -0 -0 -0 -0 -0 -0 -0 -0 -0 -0 -0 -0 -0 -0 -0 -0 -0 -0 -0 0 -0 0 0 0 0 0 0 0 0 0 0 0 0 0 0 0 0
-0 -0 -0 -0 -0 -0 -0 -0 -0 -0 -0 -0 -0 -0 -0 -0 -0 -0 -0 -0 -0 0 0 0 0 0 0 0 0 0 0 0 0 0 0 0 0 0 0 0 0 0 0
0 0 0 -0 -0 -0 -0 -0 -0 -0 -0 0 0 0 0 0 -0 -0 -0 0 0 0 0 0 0 0 0 0 0 0 0 0 0 0 0 0 0 0 0 0 0 0 0
0 0 0 0 0 0 -0 -0 -0 -0 -0 -0 0 0 0 0 0 0 0 0 0 0 0 0 0 0 0 0 0 0 0 0 0 0 0 0 0 0 0 0 0 0 0
0 -0 -0 0 0 0 0 0 0 0 0 0 0 0 0 0 0 0 0 0 0 0 0 0 0 0 0 0 0 0 0 0 0 0 0 0 0 0 0 0 0 0 0
0 0 0 0 0 0 0 0 0 0 0 0 0 0 0 0 0 0 0 0 0 0 0 0 0 0 0 0 0 0 0 0 0 0 0 0 0 0 0 0 0 0 0
0 0 0 0 0 0 0 0 0 0 0 0 0 0 0 0 0 0 0 0 0 0 0 0 0 0 0 0 0 0 0 0 0 0 0 0 0 0 0 0 0 0 0
0 0 0 0 0 0 0 0 0 0 0 0 0 0 0 0 0 0 0 0 0 0 0 0 0 0 0 0 0 0 0 0 0 0 0 0 0 0 0 0 0 0 0
0 0 0 0 0 0 0 0 0 0 0 0 0 0 0 0 0 0 0 0 0 0 0 0 0 0 0 0 0 0 0 0 0 0 0 0 0 0 0 0 0 0 0
0 0 0 0 0 0 0 0 0 0 0 0 0 0 0 0 0 0 0 0 0 0 0 0 0 0 0 0 0 0 0 0 0 0 0 0 0 0 0 0 0 0 0
0 0 0 0 0 0 0 0 0 0 0 0 0 0 0 0 0 0 0 0 0 0 0 0 0 0 0 0 0 0 0 0 0 0 0 0 0 0 0 0 0 0 0
0 0 0 0 0 0 0 0 0 0 0 0 0 0 0 0 0 0 0 0 0 0 0 0 0 0 0 0 0 0 0 0 0 0 0 0 0 0 0 0 0 0 0
0 0 0 0 0 0 0 0 0 0 0 0 0 0 0 0 0 0 0 0 0 0 0 0 0 0 0 0 0 0 0 0 0 0 0 0 0 0 0 0 0 0 0
0 0 0 0 0 0 0 0 0 0 0 0 0 0 0 0 0 0 0 0 0 0 0 0 0 0 0 0 0 0 0 0 0 0 0 0 0 0 0 0 0 0 0
0 0 0 0 0 0 0 0 0 0 0 0 0 0 0 0 0 0 0 0 0 0 0 0 0 0 0 0 0 0 0 0 0 0 0 0 0 0 0 0 0 0 0
0 0 0 0 0 0 0 0 0 0 0 0 0 0 0 0 0 0 0 0 0 0 0 0 0 0 0 0 0 0 0 0 0 0 0 0 0 0 0 0 0 0 0
0 0 0 0 0 0 0 0 0 0 0 0 0 0 0 0 0 0 0 0 0 0 0 0 0 0 0 0 0 0 0 0 -0 -0 -0 0 0 0 0 0 0 0 0
0 0 0 0 0 0 0 0 0 0 0 0 0 0 0 0 0 0 0 0 0 0 0 0 0 0 0 0 0 -0 0 0 0 0 0 0 0 0 0 0 0 0 0
0 0 0 0 0 0 0 0 0 0 0 0 0 0 0 0 0 0 0 0 0 0 0 0 0 0 0 0 0 0 0 0 0 0 0 0 0 0 0 0 0 0 0
0 0 0 0 0 0 0 0 0 0 0 0 0 0 0 0 0 0 0 0 0 0 0 0 0 0 0 0 0 0 0 0 0 0 0 0 0 0 0 0 0 0 0
0 0 0 0 0 0 0 0 0 0 -0 -0 -0 0 0 0 0 0 0 0 0 0 0 0 0 0 0 0 0 0 0 0 0 0 0 0 0 0 0 0 0 0 0
0 0 0 0 0 0 0 0 -0 -0 -0 0 0 0 0 0 0 0 0 0 0 0 0 0 0 0 0 0 0 0 0 0 0 0 0 0 0 -0 0 0 0 0 0
Wind_Speed_500mb
22 35 33 38 33 29 26 26 22 16 11 8 8 9 11 13 14 16 9 11 13 17 12 11 10 9 7 9 10 9 9 12 12 10 9 12 16 18 20 21 21 22 18
19 34 32 33 33 30 28 25 20 12 7 4 5 5 9 10 11 5 3 9 14 16 14 12 11 10 8 6 5 3 5 8 7 7 6 6 8 10 11 14 16 21 23
18 32 33 32 31 29 28 27 22 16 10 4 1 1 4 7 5 2 6 10 14 13 12 11 10 9 9 9 7 5 4 4 3 5 7 8 7 5 5 4 5 6 13
14 27 30 30 28 26 26 24 19 17 11 7 3 3 3 3 4 7 9 12 15 14 13 9 8 7 8 8 7 5 4 3 4 5 7 10 10 9 6 2 1 2 4
10 20 25 27 26 25 23 21 18 17 13 8 6 6 5 6 8 10 13 14 15 15 16 9 7 6 6 5 6 6 6 4 4 4 6 7 8 10 12 7 4 5 5
7 13 23 25 26 25 23 21 18 17 13 10 9 9 9 10 12 10 14 15 15 17 20 12 9 8 9 8 9 10 9 9 8 8 8 8 9 11 13 14 13 5 7
6 8 15 26 27 25 24 23 22 20 17 14 12 11 11 9 11 14 16 17 17 19 20 13 11 9 10 10 9 10 10 10 9 10 10 11 11 11 11 12 13 18 3
8 3 6 15 27 28 27 26 25 24 21 19 16 14 12 11 12 12 15 17 19 19 20 13 10 9 10 9 7 6 6 7 7 7 10 11 11 11 10 12 13 15 13
5 4 4 8 15 26 28 27 27 27 26 23 20 18 16 17 16 15 16 16 17 18 19 16 15 14 13 8 4 3 3 5 6 8 9 11 11 11 10 12 11 12 13
4 4 6 9 14 19 27 30 31 32 28 26 25 23 22 22 21 21 20 18 18 18 18 16 14 14 14 11 8 6 5 4 7 9 10 11 12 13 14 13 13 13 14
13 14 15 17 17 18 23 28 32 31 26 24 25 27 26 27 26 25 24 24 23 22 20 18 17 14 13 12 11 10 9 8 8 9 10 11 12 13 13 14 15 15 15
21 24 23 23 22 21 21 24 29 28 27 24 25 28 28 27 30 25 25 23 22 27 22 21 19 17 15 14 13 13 14 13 11 11 11 12 12 13 14 14 15 16 17
6 12 21 25 26 26 25 22 23 25 23 27 29 28 29 31 31 28 27 27 28 27 28 27 24 19 19 19 18 18 17 16 15 15 14 13 14 14 14 15 16 17 18
11 10 12 20 26 28 28 25 21 19 21 22 25 24 28 30 31 29 31 28 31 29 30 30 33 30 23 22 21 22 22 21 21 19 18 16 16 15 15 16 16 17 17
14 15 16 18 21 27 31 30 22 17 12 13 19 28 26 25 30 28 33 30 29 29 35 33 31 31 27 25 24 24 26 27 26 25 23 21 20 19 18 18 18 17 17
11 12 13 13 12 14 25 31 25 17 12 6 8 13 17 20 24 29 33 34 31 29 30 32 32 33 34 33 26 27 28 30 31 31 30 28 25 23 23 22 22 21 20
11 9 6 9 9 6 19 30 30 25 17 13 9 8 9 12 13 12 17 24 26 27 25 30 33 37 37 34 29 32 33 33 36 36 36 34 32 31 29 27 25 24 22
16 15 14 8 3 9 22 33 33 25 18 9 7 9 13 16 19 19 21 25 27 24 26 29 28 35 36 39 32 33 41 41 36 36 38 39 38 38 36 34 31 29 26
18 21 23 21 20 22 24 26 25 22 15 7 7 11 11 13 11 14 12 13 14 18 20 23 31 36 35 38 36 33 38 39 44 42 40 39 40 41 41 39 38 37 34
25 27 32 35 35 33 32 32 33 27 20 13 6 7 8 14 19 18 21 22 22 23 22 19 23 28 27 32 30 33 37 45 48 51 52 48 45 44 44 45 44 43 41
34 35 34 36 40 34 31 27 27 20 18 12 6 5 6 5 7 13 20 25 25 27 28 24 22 25 28 35 43 45 45 47 46 48 54 49 43 42 45 45 46 47 46
47 48 47 46 44 42 40 40 38 34 31 25 22 15 13 5 3 7 12 18 21 19 23 26 28 27 31 36 37 44 34 48 41 32 28 26 29 30 31 32 43 47 48
57 58 58 57 53 49 45 41 38 35 34 28 25 22 21 17 14 10 7 6 7 10 16 21 26 29 30 33 33 26 18 17 46 41 46 51 50 52 49 46 42 36 38
53 48 44 42 41 40 36 32 28 27 26 28 24 24 22 21 20 20 19 17 16 17 14 16 18 21 23 25 22 21 23 29 25 32 36 56 56 50 51 53 52 51 48
39 38 35 34 33 31 27 24 23 25 29 28 26 22 24 23 21 21 22 23 23 25 25 25 26 29 29 27 28 30 29 30 30 36 59 61 73 63 55 56 59 59 56
30 30 28 25 25 22 20 24 26 29 28 23 22 19 18 18 19 20 21 22 24 24 26 28 28 28 28 27 27 29 32 33 35 37 49 69 79 76 68 57 52 53 56
Wind_Direction_500mb
174 175 175 171 173 170 168 172 169 161 147 113 91 96 100 94 101 103 78 50 17 15 20 22 37 59 71 86 102 128 114 101 97 101 88 84 94 94 85 82 86 79 79
174 177 176 170 172 171 178 178 178 178 169 111 89 69 78 93 107 135 71 12 354 355 12 37 37 45 52 51 65 73 86 110 80 64 57 67 85 94 104 92 90 93 88
163 178 177 176 176 177 175 179 188 194 195 195 143 69 100 127 146 42 16 356 353 1 8 24 34 34 38 42 41 31 76 96 60 30 41 52 65 76 85 101 99 110 108
145 180 182 182 185 183 183 186 196 201 207 209 240 285 281 276 310 333 332 349 353 357 1 6 16 21 17 16 17 19 10 4 5 19 37 42 48 54 46 4 279 210 145
121 171 189 191 193 192 195 201 209 207 207 229 267 286 285 293 299 305 325 351 350 349 349 343 338 344 333 336 328 322 324 319 323 340 355 5 25 17 1 348 271 250 235
112 157 189 201 204 204 205 206 208 209 220 247 268 283 287 291 296 312 331 344 343 346 342 334 324 321 317 319 312 301 299 297 298 309 319 324 333 336 349 1 5 288 239
68 158 191 205 211 213 214 217 220 224 235 251 260 267 272 281 310 320 328 332 335 343 354 339 322 319 318 318 306 289 285 285 294 300 304 311 314 316 320 314 324 336 18
57 119 196 210 219 223 223 225 230 236 243 253 255 260 264 263 295 307 322 326 329 337 349 345 332 325 323 325 318 305 300 303 306 310 312 311 316 316 314 306 308 305 319
80 114 199 233 232 233 232 234 233 238 244 251 252 253 253 260 282 289 302 311 318 326 340 347 340 336 333 336 338 351 352 341 338 336 329 325 326 325 322 310 305 300 303
204 208 231 240 237 235 237 237 238 240 245 243 246 247 251 253 269 274 284 293 301 312 321 341 337 339 332 327 322 327 329 326 329 332 332 329 326 324 318 316 310 304 299
241 238 231 225 231 239 238 236 242 247 240 245 247 253 250 252 259 267 276 284 293 301 309 324 334 335 321 311 300 300 302 310 316 320 323 322 323 323 320 319 314 309 304
250 248 244 239 235 230 236 237 237 241 235 244 253 254 257 260 275 278 279 280 289 295 297 307 320 323 310 297 290 291 295 297 299 303 307 310 314 316 316 315 312 309 308
288 253 244 241 238 237 228 230 236 232 226 230 242 253 257 253 259 271 275 282 286 296 306 305 303 311 311 299 289 284 283 285 288 292 294 298 303 306 308 311 310 312 310
291 290 270 244 239 240 237 224 225 230 227 233 242 247 264 265 267 275 275 277 280 293 297 304 312 310 302 301 291 284 282 283 283 282 282 285 290 296 299 302 305 308 307
281 278 280 278 266 249 236 226 213 222 229 230 243 251 254 259 267 269 275 279 286 292 296 295 304 314 313 300 297 291 285 282 281 281 280 281 283 286 289 292 294 299 303
299 286 276 273 273 256 231 218 202 202 208 222 186 215 243 262 271 278 275 273 286 297 295 293 296 301 305 300 299 298 294 286 282 280 278 277 276 276 280 284 286 292 302
6 4 327 287 278 237 188 185 185 191 193 189 194 198 227 245 255 261 259 274 269 278 289 294 298 295 296 291 297 307 299 296 289 283 279 278 276 274 273 274 278 284 289
39 35 37 44 108 154 166 172 178 179 179 179 227 256 272 270 257 254 252 255 253 260 269 269 286 288 288 283 281 289 301 302 301 290 283 280 277 275 276 276 276 276 275
74 75 77 84 99 109 127 142 147 142 145 176 253 274 282 288 308 297 302 311 268 266 274 268 277 284 286 280 283 282 283 294 301 303 296 286 279 277 275 274 274 275 273
98 98 95 93 93 103 114 120 120 127 131 149 174 259 286 291 307 312 313 315 322 320 314 303 292 282 289 294 305 301 296 291 302 301 300 296 289 283 276 271 270 270 271
103 102 101 97 93 94 98 103 113 115 102 111 70 47 40 346 311 300 300 308 311 303 300 303 314 319 310 305 303 298 300 305 300 293 292 293 286 283 280 273 269 269 270
103 101 101 98 99 99 97 92 92 92 94 86 81 75 78 64 4 308 292 291 291 304 300 302 302 306 310 314 317 319 312 302 300 289 279 291 286 293 304 295 277 270 266
101 100 100 97 93 89 85 86 89 92 94 95 89 80 67 57 49 42 31 358 328 309 305 311 309 303 303 301 308 315 319 295 303 299 291 289 285 287 290 290 294 286 276
104 97 91 91 90 86 82 83 86 86 81 80 73 71 68 62 54 50 44 35 28 23 11 2 354 344 331 318 312 303 300 298 312 311 296 296 298 291 284 284 284 281 280
106 102 91 81 79 82 81 76 63 60 78 80 75 63 53 44 41 36 32 29 22 21 20 16 12 10 5 355 346 333 314 305 305 308 308 306 302 300 295 284 276 277 279
116 106 94 73 66 76 77 75 66 65 71 68 60 48 45 40 36 32 28 23 20 17 15 13 11 5 5 1 357 352 347 341 325 311 303 305 308 310 307 303 298 289 278
Wind_Speed_850mb
22 35 33 38 33 29 26 26 22 16 11 8 8 9 11 13 14 16 9 11 13 17 12 11 10 9 7 9 10 9 9 12 12 10 9 12 16 18 20 21 21 22 18
19 34 32 33 33 30 28 25 20 12 7 4 5 5 9 10 11 5 3 9 14 16 14 12 11 10 8 6 5 3 5 8 7 7 6 6 8 10 11 14 16 21 23
18 32 33 32 31 29 28 27 22 16 10 4 1 1 4 7 5 2 6 10 14 13 12 11 10 9 9 9 7 5 4 4 3 5 7 8 7 5 5 4 5 6 13
14 27 30 30 28 26 26 24 19 17 11 7 3 3 3 3 4 7 9 12 15 14 13 9 8 7 8 8 7 5 4 3 4 5 7 10 10 9 6 2 1 2 4
10 20 25 27 26 25 23 21 18 17 13 8 6 6 5 6 8 10 13 14 15 15 16 9 7 6 6 5 6 6 6 4 4 4 6 7 8 10 12 7 4 5 5
7 13 23 25 26 25 23 21 18 17 13 10 9 9 9 10 12 10 14 15 15 17 20 12 9 8 9 8 9 10 9 9 8 8 8 8 9 11 13 14 13 5 7
6 8 15 26 27 25 24 23 22 20 17 14 12 11 11 9 11 14 16 17 17 19 20 13 11 9 10 10 9 10 10 10 9 10 10 11 11 11 11 12 13 18 3
8 3 6 15 27 28 27 26 25 24 21 19 16 14 12 11 12 12 15 17 19 19 20 13 10 9 10 9 7 6 6 7 7 7 10 11 11 11 10 12 13 15 13
5 4 4 8 15 26 28 27 27 27 26 23 20 18 16 17 16 15 16 16 17 18 19 16 15 14 13 8 4 3 3 5 6 8 9 11 11 11 10 12 11 12 13
4 4 6 9 14 19 27 30 31 32 28 26 25 23 22 22 21 21 20 18 18 18 18 16 14 14 14 11 8 6 5 4 7 9 10 11 12 13 14 13 13 13 14
13 14 15 17 17 18 23 28 32 31 26 24 25 27 26 27 26 25 24 24 23 22 20 18 17 14 13 12 11 10 9 8 8 9 10 11 12 13 13 14 15 15 15
21 24 23 23 22 21 21 24 29 28 27 24 25 28 28 27 30 25 25 23 22 27 22 21 19 17 15 14 13 13 14 13 11 11 11 12 12 13 14 14 15 16 17
6 12 21 25 26 26 25 22 23 25 23 27 29 28 29 31 31 28 27 27 28 27 28 27 24 19 19 19 18 18 17 16 15 15 14 13 14 14 14 15 16 17 18
11 10 12 20 26 28 28 25 21 19 21 22 25 24 28 30 31 29 31 28 31 29 30 30 33 30 23 22 21 22 22 21 21 19 18 16 16 15 15 16 16 17 17
14 15 16 18 21 27 31 30 22 17 12 13 19 28 26 25 30 28 33 30 29 29 35 33 31 31 27 25 24 24 26 27 26 25 23 21 20 19 18 18 18 17 17
11 12 13 13 12 14 25 31 25 17 12 6 8 13 17 20 24 29 33 34 31 29 30 32 32 33 34 33 26 27 28 30 31 31 30 28 25 23 23 22 22 21 20
11 9 6 9 9 6 19 30 30 25 17 13 9 8 9 12 13 12 17 24 26 27 25 30 33 37 37 34 29 32 33 33 36 36 36 34 32 31 29 27 25 24 22
16 15 14 8 3 9 22 33 33 25 18 9 7 9 13 16 19 19 21 25 27 24 26 29 28 35 36 39 32 33 41 41 36 36 38 39 38 38 36 34 31 29 26
18 21 23 21 20 22 24 26 25 22 15 7 7 11 11 13 11 14 12 13 14 18 20 23 31 36 35 38 36 33 38 39 44 42 40 39 40 41 41 39 38 37 34
25 27 32 35 35 33 32 32 33 27 20 13 6 7 8 14 19 18 21 22 22 23 22 19 23 28 27 32 30 33 37 45 48 51 52 48 45 44 44 45 44 43 41
34 35 34 36 40 34 31 27 27 20 18 12 6 5 6 5 7 13 20 25 25 27 28 24 22 25 28 35 43 45 45 47 46 48 54 49 43 42 45 45 46 47 46
47 48 47 46 44 42 40 40 38 34 31 25 22 15 13 5 3 7 12 18 21 19 23 26 28 27 31 36 37 44 34 48 41 32 28 26 29 30 31 32 43 47 48
57 58 58 57 53 49 45 41 38 35 34 28 25 22 21 17 14 10 7 6 7 10 16 21 26 29 30 33 33 26 18 17 46 41 46 51 50 52 49 46 42 36 38
53 48 44 42 41 40 36 32 28 27 26 28 24 24 22 21 20 20 19 17 16 17 14 16 18 21 23 25 22 21 23 29 25 32 36 56 56 50 51 53 52 51 48
39 38 35 34 33 31 27 24 23 25 29 28 26 22 24 23 21 21 22 23 23 25 25 25 26 29 29 27 28 30 29 30 30 36 59 61 73 63 55 56 59 59 56
30 30 28 25 25 22 20 24 26 29 28 23 22 19 18 18 19 20 21 22 24 24 26 28 28 28 28 27 27 29 32 33 35 37 49 69 79 76 68 57 52 53 56
Wind_Direction_850mb
174 175 175 171 173 170 168 172 169 161 147 113 91 96 100 94 101 103 78 50 17 15 20 22 37 59 71 86 102 128 114 101 97 101 88 84 94 94 85 82 86 79 79
174 177 176 170 172 171 178 178 178 178 169 111 89 69 78 93 107 135 71 12 354 355 12 37 37 45 52 51 65 73 86 110 80 64 57 67 85 94 104 92 90 93 88
163 178 177 176 176 177 175 179 188 194 195 195 143 69 100 127 146 42 16 356 353 1 8 24 34 34 38 42 41 31 76 96 60 30 41 52 65 76 85 101 99 110 108
145 180 182 182 185 183 183 186 196 201 207 209 240 285 281 276 310 333 332 349 353 357 1 6 16 21 17 16 17 19 10 4 5 19 37 42 48 54 46 4 279 210 145
121 171 189 191 193 192 195 201 209 207 207 229 267 286 285 293 299 305 325 351 350 349 349 343 338 344 333 336 328 322 324 319 323 340 355 5 25 17 1 348 271 250 235
112 157 189 201 204 204 205 206 208 209 220 247 268 283 287 291 296 312 331 344 343 346 342 334 324 321 317 319 312 301 299 297 298 309 319 324 333 336 349 1 5 288 239
68 158 191 205 211 213 214 217 220 224 235 251 260 267 272 281 310 320 328 332 335 343 354 339 322 319 318 318 306 289 285 285 294 300 304 311 314 316 320 314 324 336 18
57 119 196 210 219 223 223 225 230 236 243 253 255 260 264 263 295 307 322 326 329 337 349 345 332 325 323 325 318 305 300 303 306 310 312 311 316 316 314 306 308 305 319
80 114 199 233 232 233 232 234 233 238 244 251 252 253 253 260 282 289 302 311 318 326 340 347 340 336 333 336 338 351 352 341 338 336 329 325 326 325 322 310 305 300 303
204 208 231 240 237 235 237 237 238 240 245 243 246 247 251 253 269 274 284 293 301 312 321 341 337 339 332 327 322 327 329 326 329 332 332 329 326 324 318 316 310 304 299
241 238 231 225 231 239 238 236 242 247 240 245 247 253 250 252 259 267 276 284 293 301 309 324 334 335 321 311 300 300 302 310 316 320 323 322 323 323 320 319 314 309 304
250 248 244 239 235 230 236 237 237 241 235 244 253 254 257 260 275 278 279 280 289 295 297 307 320 323 310 297 290 291 295 297 299 303 307 310 314 316 316 315 312 309 308
288 253 244 241 238 237 228 230 236 232 226 230 242 253 257 253 259 271 275 282 286 296 306 305 303 311 311 299 289 284 283 285 288 292 294 298 303 306 308 311 310 312 310
291 290 270 244 239 240 237 224 225 230 227 233 242 247 264 265 267 275 275 277 280 293 297 304 312 310 302 301 291 284 282 283 283 282 282 285 290 296 299 302 305 308 307
281 278 280 278 266 249 236 226 213 222 229 230 243 251 254 259 267 269 275 279 286 292 296 295 304 314 313 300 297 291 285 282 281 281 280 281 283 286 289 292 294 299 303
299 286 276 273 273 256 231 218 202 202 208 222 186 215 243 262 271 278 275 273 286 297 295 293 296 301 305 300 299 298 294 286 282 280 278 277 276 276 280 284 286 292 302
6 4 327 287 278 237 188 185 185 191 193 189 194 198 227 245 255 261 259 274 269 278 289 294 298 295 296 291 297 307 299 296 289 283 279 278 276 274 273 274 278 284 289
39 35 37 44 108 154 166 172 178 179 179 179 227 256 272 270 257 254 252 255 253 260 269 269 286 288 288 283 281 289 301 302 301 290 283 280 277 275 276 276 276 276 275
74 75 77 84 99 109 127 142 147 142 145 176 253 274 282 288 308 297 302 311 268 266 274 268 277 284 286 280 283 282 283 294 301 303 296 286 279 277 275 274 274 275 273
98 98 95 93 93 103 114 120 120 127 131 149 174 259 286 291 307 312 313 315 322 320 314 303 292 282 289 294 305 301 296 291 302 301 300 296 289 283 276 271 270 270 271
103 102 101 97 93 94 98 103 113 115 102 111 70 47 40 346 311 300 300 308 311 303 300 303 314 319 310 305 303 298 300 305 300 293 292 293 286 283 280 273 269 269 270
103 101 101 98 99 99 97 92 92 92 94 86 81 75 78 64 4 308 292 291 291 304 300 302 302 306 310 314 317 319 312 302 300 289 279 291 286 293 304 295 277 270 266
101 100 100 97 93 89 85 86 89 92 94 95 89 80 67 57 49 42 31 358 328 309 305 311 309 303 303 301 308 315 319 295 303 299 291 289 285 287 290 290 294 286 276
104 97 91 91 90 86 82 83 86 86 81 80 73 71 68 62 54 50 44 35 28 23 11 2 354 344 331 318 312 303 300 298 312 311 296 296 298 291 284 284 284 281 280
106 102 91 81 79 82 81 76 63 60 78 80 75 63 53 44 41 36 32 29 22 21 20 16 12 10 5 355 346 333 314 305 305 308 308 306 302 300 295 284 276 277 279
116 106 94 73 66 76 77 75 66 65 71 68 60 48 45 40 36 32 28 23 20 17 15 13 11 5 5 1 357 352 347 341 325 311 303 305 308 310 307 303 298 289 278